Regional Weather Roundup
Issued by NWS Pendleton, OR

Home | Current Version | Previous Version | Text Only | Print | Product List | Glossary On
Versions: 1 2 3 4 5 6 7 8 9 10 11 12 13 14 15 16 17 18 19 20 21 22 23 24 25 26 27 28 29 30 31 32 33 34 35 36 37 38 39 40 41 42 43 44 45 46 47 48 49 50
000
ASUS46 KPDT 222225
RWRPDT
PENDLETON REGIONAL WEATHER ROUNDUP
NATIONAL WEATHER SERVICE PENDLETON OREGON
300 PM PDT TUE JUL 22 2014

NOTE: FAIR INDICATES FEW OR NO CLOUDS BELOW 12,000 FEET WITH NO
SIGNIFICANT WEATHER AND/OR OBSTRUCTIONS TO VISIBILITY.

# INDICATES UNOFFICIAL STATION AND DATA

WAZ520-222310-
EAST SLOPES OF WASHINGTON CASCADES

CITY            SKY/WX      TMP DP  RH  WIND    PRES   REMARKS
#BUMPING DAM    N/A         56  N/A N/A CALM    N/A
#CLE ELUM HS    N/A         67  56  68  CALM    30.03S
#CLE ELUM LAKE  N/A         64  60  87  CALM    29.98F
#CLIFFDEL 2NW   N/A         65  57  75  CALM    N/A
#GLENWOOD       N/A         72  60  66  CALM    29.99F
#MANASTASH CYN  N/A         69  56  63  CALM    30.06F
#NELSON         N/A         65  57  75  CALM    30.02F
#NELSON 3SW     N/A         63  58  84  CALM    30.20F
#NILE           N/A         71  59  66  CALM    29.27F
#RONALD 2NW     N/A         63  57  81  W1      29.97F
#TROUT LAKE 1NE N/A         70  59  68  CALM    30.01S
$$

WAZ521-222310-
SIMCOE HIGHLANDS

CITY            SKY/WX      TMP DP  RH  WIND    PRES   REMARKS
#BICKLETON HS   N/A         70  46  42  W7      30.12F
#CENTERVILLE 1SWN/A         72  55  55  W1      29.96S
#GOLDENDALE 1NE N/A         72  49  44  SW1     N/A
#GOLDENDALE 1S  N/A         73  58  59  CALM    30.04S
#GOLDENDALE 5WNWN/A         72  58  61  W5      29.97F
#GOODNOE HILLS  N/A         82  56  41  W8      29.96F
#LYLE 6NE       N/A         67  61  81  CALM    29.97F
$$

WAZ026-222310-
KITTITAS VALLEY

CITY            SKY/WX      TMP DP  RH  WIND    PRES   REMARKS
ELLENSBURG AP   MOCLDY      80  56  44  VRB6    30.07F
#ELLENSBURG CWU N/A         72  58  61  CALM    29.96F
#ELLENSBURG 3NE N/A         70  58  66  NE1     30.07F
#ELLENSBURG 1E  N/A         73  58  59  CALM    N/A
#KITTITAS 3S    N/A         70  59  68  CALM    29.98F
#THORP 6N       N/A         68  58  70  S3      30.02F
$$

WAZ027-222310-
YAKIMA VALLEY

CITY            SKY/WX      TMP DP  RH  WIND    PRES   REMARKS
YAKIMA AIRPORT  MOCLDY      81  56  42  VRB3    30.04F
YAKIMA-VAGABOND CLOUDY      80  53  39  W9      30.05F
#COWICHE 1N     N/A         72  59  64  S1      30.19F
#DONALD 2NE     N/A         67  43  42  SW1     30.30S
#GRANDVIEW      N/A         76  55  48  CALM    29.98F
#MABTON         N/A         80  60  51  NE2     30.00F
#MOXEE 2E       N/A         77  39  25  SW6     29.93F
#NACHES 2SW     N/A         75  60  60  N1      30.09S
#OUTLOOK DOT    N/A         N/A N/A N/A NE2     N/A
#SELAH 8E       N/A         79  53  41  S7      N/A
#TERRACE HTS    N/A         79  58  49  CALM    29.96S
#TOPPENISH      N/A         76  57  52  E1      29.91F
#WAPATO 4NE     N/A         67  43  42  SW1     30.30S
#WEST VALLEY    N/A         76  57  52  CALM    30.01F
#W YAKIMA       N/A         78  56  47  S2      29.98F
#WHITE SWAN 5E  N/A         77  58  52  NE3     29.99F
#WILEY CITY 3W  N/A         76  54  46  CALM    30.05F
$$

WAZ028-222310-
LOWER COLUMBIA BASIN...WASHINGTON

CITY            SKY/WX      TMP DP  RH  WIND    PRES   REMARKS
HANFORD         CLOUDY      81  49  33  SE5     30.04F
PASCO           CLOUDY      82  56  41  N7      30.01F
PROSSER AWOS    N/A         79  55  44  N9      30.03F
RICHLAND AWOS   RAIN        82  48  31  N3      30.01F
#BASIN CITY 5SW N/A         79  58  49  CALM    30.03F
#BENTON CITY    N/A         78  55  45  CALM    29.89F
#CONNELL 5N     N/A         83  52  34  CALM    29.99F
#CONNELL 5NW    N/A         79  56  45  CALM    29.95F
#ELTOPIA        N/A         83  57  41  CALM    29.94F
#ELTOPIA 6NW    N/A         79  53  41  CALM    29.01F
#KENNEWICK 3S   N/A         84  55  37  CALM    29.98F
#PASCO-BROADMOORN/A         86  54  34  W2      29.88F
#PATERSON       N/A         81  54  39  NW7     29.96F
#PROSSER        N/A         78  52  40  NE2     29.98F
#SAGEMOOR 2W    N/A         83  61  48  CALM    29.85F
#TOUCHET 2S     N/A         83  57  41  CALM    29.96S
#WEST PASCO     N/A         85  56  37  N2      29.99F
$$

WAZ029-222310-
FOOTHILLS OF THE BLUES...WASHINGTON

CITY            SKY/WX      TMP DP  RH  WIND    PRES   REMARKS
WALLA WALLA AP  PTCLDY      88  48  25  VRB3    30.04F
#COLLEGE PLACE  N/A         95  56  27  SE2     30.00F HX 93
#DAYTON SCHOOL  N/A         83  46  27  NE1     30.03F
#LOWDEN 2SE     N/A         87  56  35  W5      29.95F
#PLEASANT VIEW 1N/A         83  48  30  W2      30.02F
#PRESCOTT       N/A         86  53  32  CALM    29.96F
#SUDBURY        N/A         88  N/A N/A N3      N/A
#WHITMAN COLLEGEN/A         86  55  35  CALM    30.00F
#WAITSBURG 8N   N/A         92  41  17  CALM    29.88F HX 88
#WALLA WALLA 5E N/A         90  54  30  W1      N/A    HX 88
#WALLA WALLA U  N/A         86  53  32  CALM    29.96F
#WHITMAN MISSIONN/A         88  56  34  CALM    29.97F
$$

WAZ030-222310-
BLUE MOUNTAINS...WASHINGTON

CITY            SKY/WX      TMP DP  RH  WIND    PRES   REMARKS
$$

ORZ009-041-WAZ024-222310-
COLUMBIA RIVER GORGE

CITY            SKY/WX      TMP DP  RH  WIND    PRES   REMARKS
HOOD RIVER AP   LGT RAIN    73  61  66  S5      30.05S
THE DALLES AP   PTCLDY      76  58  54  N5      30.01F
#ARLINGTON AIRPON/A         78  56  47  SW2     N/A
#ARLINGTON HS   N/A         80  58  47  E2      29.88F
#CELILO DOT     N/A         77  59  54  N6      N/A
#MOSIER 1S      N/A         72  57  59  CALM    30.09S
#MURDOCK        N/A         73  64  73  NW3     30.02F
#RUFUS DOT      N/A         83  60  46  W7      N/A

$$

ORZ510-222310-
NORTH CENTRAL OREGON

CITY            SKY/WX      TMP DP  RH  WIND    PRES   REMARKS
#CHENOWITH 1W   N/A         66  57  73  N3      N/A
#COW CYN RST AREN/A         74  60  62  W3      N/A
#DUFUR 9E       N/A         68  56  65  NW7     30.03S
#GRASS VALLEY 1SN/A         74  57  55  CALM    29.99F
#KENT DOT       N/A         74  52  46  NW9     N/A
#MAUPIN SCHOOL  N/A         78  58  50  N1      30.03F
#MORO SCHOOL    N/A         76  62  62  CALM    30.06F
#SHANIKO 5WSW   N/A         72  52  49  NW7     N/A
#SHANIKO 4NW    N/A         69  53  57  N8      30.12S
#TYGH VALLEY 2NEN/A         76  59  56  SW1     29.97F
#WAPANITIA AIRPON/A         76  57  52  NE2     29.97F
#WASCO DOT      N/A         78  59  52  NW8     N/A
#WASCO 5NE      N/A         76  55  48  N2      29.98F
$$

ORZ511-222310-
CENTRAL OREGON

CITY            SKY/WX      TMP DP  RH  WIND    PRES   REMARKS
BEND AIRPORT    LGT RAIN    70  59  68  N7      30.08F
MADRAS AIRPORT  PTCLDY      75  55  50  N3      30.08S
REDMOND AIRPORT CLOUDY      75  53  46  NW13    30.05F
#BEND 6E        N/A         72  55  55  CALM    29.85S
#BEND 1SW       N/A         67  63  87  CALM    N/A
#BEND-AWBREY    N/A         73  57  57  S3      29.91F
#BEND-KIM LN    N/A         70  61  73  NW2     30.06S
#CROOKED RVR RANN/A         73  59  62  E7      29.92F
#CULVER         N/A         73  59  62  CALM    30.03S
#LAKE BILLY CHINN/A         77  22  13  N2      30.07F
#POWELL BUTTE 3EN/A         74  60  62  NW7     N/A
#POWELL BUTTE   N/A         79  59  50  N5      29.72S
#PRINEVILLE 3N  N/A         78  56  47  W8      29.85F


ORZ509-222310-
EAST SLOPES OF OREGON CASCADES

CITY            SKY/WX      TMP DP  RH  WIND    PRES   REMARKS
#BLUE BOX PASS  N/A         66  11  11  NW6     N/A
#BLACK BUTTE RNCN/A         76  58  54  CALM    29.92F
#CAMP SHERMAN   N/A         78  54  43  CALM    29.94S
#LA PINE DOT    N/A         83  42  24  W8      N/A
#LA PINE 4NW    N/A         76  52  43  CALM    29.92F
#LAVA BUTTE DOT N/A         76  53  45  SW1     N/A
#SISTERS AIRPOR N/A         76  61  60  N1      30.06F
#SISTERS ODOT   N/A         76  N/A N/A NE2     N/A
#SISTERS 3N     N/A         79  32  18  NE2     30.10S
#SUNRIVER       N/A         77  56  48  W2      29.77F
#SUNRIVER AP    N/A         75  55  50  W5      29.85F
#SUTTLE LK DOT  N/A         67  54  63  S22G37  N/A
#TUMALO 3W      N/A         70  61  73  N3      29.83F
#WANOGA BUTTE D N/A         65  48  54  W12     N/A

$$

ORZ044-222310-
LOWER COLUMBIA BASIN...OREGON

CITY            SKY/WX      TMP DP  RH  WIND    PRES   REMARKS
HERMISTON       MOCLDY      85  50  30  VRB6    29.99F
#BOARDMAN SCHOOLN/A         75  60  60  CALM    29.98F
#BOARDMAN 3W    N/A         85  58  40  N1      29.68F
#BOARDMAN 8SW   N/A         80  58  47  NW2     29.97F
#IONE SCHOOL    N/A         79  53  41  CALM    30.00F
#IRRIGON 4NW    N/A         86  51  30  W5      N/A
#UMATILLA SCHOOLN/A         88  63  43  NW7     30.01F
#UMATILLA       N/A         84  53  34  N2      29.96F
$$

ORZ507-222310-
NORTHERN FOOTHILLS OF THE BLUES

CITY            SKY/WX      TMP DP  RH  WIND    PRES   REMARKS
PENDLETON AIRPT PTCLDY      86  48  27  N14     30.02F
#ADAMS 3WNW     N/A         84  51  32  NW6     29.95F
#ATHENA         N/A         82  51  34  NE6     29.99F
#HELIX SCHOOL   N/A         81  51  35  N7      29.96F
#HELIX 3N       N/A         80  49  34  N10     30.02F
#HOLDMAN 5SE    N/A         85  53  33  W6      30.03F
#HOLDMAN 6E     N/A         85  53  33  N3      29.78F
#M-F FERNDALE   N/A         92  55  29  CALM    30.01F HX 90
#M-F GROVE ELEM N/A         83  48  30  N3      30.02S
#M-FREEWATER 5SEN/A         83  56  40  NW7     30.02F
#PDT AQUATIC CTRN/A         85  53  33  N5      29.98F
#PENDLETON DNTN N/A         87  52  30  N3      29.98S
#PENDLETON 5NE  N/A         86  54  34  N7      29.98F
#PDT SUNRIDGE   N/A         86  53  32  NW7     30.02F
#PENDLETON 7NW  N/A         81  57  44  N3      25.07S
#PILOT ROCK     N/A         81  51  35  N1      30.06S
#TUTUILLA       N/A         86  55  35  NE3     29.90F
#UMAPINE 2E     N/A         86  58  39  SE5     29.98F
#WESTON SCHOOL  N/A         80  47  31  E7      30.02F

$$

ORZ508-222310-
SOUTHERN FOOTHILLS OF THE BLUES

CITY            SKY/WX      TMP DP  RH  WIND    PRES   REMARKS
#AJAX           N/A         N/A N/A N/A N5      30.08F
#CONDON SCHOOL  N/A         78  56  47  N7      30.03F
#CONDON 5W      N/A         72  49  44  N7      30.08S
#HEPPNER EOC    N/A         82  52  35  N7      29.91F
#HEPPNER 4NE    N/A         76  52  43  N7      29.96F
#LEXINGTON 2SE  N/A         81  54  39  NE1     30.01F
#MIKKALO        N/A         77  52  42  N1      30.06F
#RUGGS 5NE      N/A         81  51  35  N10     30.27S
#RUGGS 2SW      N/A         76  51  42  N7      30.01S

$$

ORZ502-503-222310-
BLUE MOUNTAINS

CITY            SKY/WX      TMP DP  RH  WIND    PRES   REMARKS
MEACHAM         PTCLDY      73  52  48  VRB3    30.14F
#BATTLE MTN DOT N/A         72  60  66  N6      N/A
#HARDMAN 10S    N/A         75  49  40  N7      30.18S
#HEPPNER 15SE   N/A         75  50  41  CALM    30.06F
#LADD CYN SMT   N/A         86  48  27  E9      N/A
#LADD CREEK ODOTN/A         89  57  34  S8      N/A
#LONG CREEK HS  N/A         80  47  31  CALM    30.03F
#PIKES PEAK     N/A         76  52  43  N6      27.99S
#TOLLGATE       N/A         68  52  57  E1      30.11F
#TOLLGATE 9W    N/A         75  52  45  NW5     N/A
#TROY SCHOOL    N/A         80  61  52  N1      29.79R
#UKIAH          N/A         77  51  40  NW10    29.93F
#WESTON 4E      N/A         80  52  38  N2      29.91F
$$

ORZ505-222310-
JOHN DAY BASIN

CITY            SKY/WX      TMP DP  RH  WIND    PRES   REMARKS
JOHN DAY        MOCLDY      87  41  20  SW10    30.07F
#JOHN DAY KJDY  N/A         90  51  26  CALM    29.94F HX 87
#MONUMENT HS    N/A         88  52  29  W1      29.74F
#MT. VERNON 5SE N/A         81  44  27  SE6     30.05F
#WINLOCK        N/A         83  51  33  S7      30.14F
$$

ORZ506-222310-
OCHOCO AND JOHN DAY HIGHLANDS

CITY            SKY/WX      TMP DP  RH  WIND    PRES   REMARKS
#BUCK CREEK DOT N/A         83  47  28  SW10    N/A
#HORSE RIDGE DO N/A         79  40  25  SE7G29  N/A
#KEYES SMT DOT  N/A         81  47  30  W12     N/A
#PAULINA SCHOOL N/A         87  41  20  SW8     30.06F
#PINE MTN OBS   N/A         67  44  43  SE7     N/A
#PRAIRIE CITY   N/A         82  44  26  SE7     29.85F
#SENECA 9NW     N/A         81  44  27  CALM    29.89F
$$

ORZ049-222310-
GRANDE RONDE VALLEY

CITY            SKY/WX      TMP DP  RH  WIND    PRES   REMARKS
LA GRANDE       PTCLDY      88  50  27  NW6     30.02F
#COVE           N/A         89  53  29  S7      29.95F
#COVE SCHOOL    N/A         90  51  26  SW1     30.02F HX 87
#COVE 6NW       N/A         85  55  36  CALM    29.93F
#ELGIN 3N       N/A         86  48  27  CALM    29.76F
#ELGIN 1E       N/A         89  54  31  CALM    N/A
#IMBLER SCHOOL  N/A         81  57  44  CALM    29.99F
#ISLAND CITY 4N N/A         86  58  39  NE1     29.85F
#LADD CYN DOT   N/A         88  54  31  S7      N/A
#UNION 1S       N/A         88  50  27  SW5     29.79F
$$

ORZ050-222310-
WALLOWA COUNTY

CITY            SKY/WX      TMP DP  RH  WIND    PRES   REMARKS
JOSEPH AIRPORT  PTCLDY      88  39  18  CALM    30.13F
#ENTERPRISE AP  N/A         66  35  32  CALM    29.99S
#ENTERPRISE HS  N/A         84  49  30  CALM    30.09F
#JOSEPH 3N      N/A         82  47  29  E2      30.14S
#JOSEPH 3W      N/A         82  44  26  N3      29.99F
#LOSTINE        N/A         86  50  29  N2      29.71F
#MT HOWARD 8000 N/A         64  42  45  SW3     30.42S
#PROMISE 1S     N/A         76  55  48  S8      30.05F
#SHEEP RDG 7000 N/A         66  42  42  CALM    29.98S
#WALLOWA SCHOOL N/A         88  50  27  CALM    30.77F



$$



USA.gov is the U.S. government's official web portal to all federal, state and local government web resources and services.